User: anonymous
Location: Unspecified
(0.0000°N, 0.0000°E)
Time: 14:21:26
(UTC+00:00)
Language:

Tiangong 1 - Orbit

View from above orbital plane
View from above orbital plane
View from above satellite
View from above satellite

Ground track
Ground track

The orbit data is extracted from the following two-line orbital elements,

1 37820U 11053A   14209.05936838  .00014497  00000-0  15164-3 0  2413
2 37820 042.7713 064.6577 0004989 252.6961 236.9431 15.64243742162478
Epoch (UTC): 28 July 2014 01:25:29
Eccentricity: 0.0004989
inclination: 42.7713°
perigee height: 372 km
apogee height: 379 km
right ascension of ascending node: 64.6577°
argument of perigee: 252.6961°
revolutions per day: 15.64243742
mean anomaly at epoch: 236.9431°
orbit number at epoch: 16247

The dashed part of the orbit path shows where the satellite is in the earth's shadow,  

DLR